Weather History for KDUC - June, 2014

Change the Weather History Date:

Saturday, June 7, 2014

  Actual Average (KLAW) Record (KLAW)
Temperature  
Mean Temperature 78 °F -  
Max Temperature 89 °F 87 °F 102 °F (2011)
Min Temperature 66 °F 64 °F 49 °F (1983)
Cooling Degree Days 12    
Growing Degree Days 28 (Base 50)    
Moisture  
Dew Point 69 °F    
Average Humidity 76    
Maximum Humidity 100    
Minimum Humidity 52    
Precipitation  
Precipitation 0.37 in - - ()
Sea Level Pressure  
Sea Level Pressure 29.90 in    
Wind  
Wind Speed 5 mph (NE)    
Max Wind Speed 28 mph    
Max Gust Speed 36 mph    
Visibility 10 miles    
Events Rain    
Averages and records for this station are not official NWS values.
T = Trace of Precipitation, MM = Missing Value Source: NWS Daily Summary

Daily Weather History Graph

Daily Weather History Graph

Search for Another Location

Airport or City:

Trip Planner

Search our weather history database for the weather conditions in past years. The results will help you decide how hot, cold, wet, or windy it might be!

Date:

Astronomy

Jun. 07, 2014 Rise Set
Actual Time 6:19 AM CDT 8:42 PM CDT
Civil Twilight 5:49 AM CDT 9:11 PM CDT
Nautical Twilight 5:14 AM CDT 9:47 PM CDT
Astronomical Twilight 4:34 AM CDT 10:27 PM CDT
Moon 3:14 PM CDT (6/7) 2:27 AM CDT (6/7)
Length of Visible Light 15h 21m
Length of Day
14h 23m
Waxing Gibbous, 68% of the Moon is Illuminated
Jun 7
Waxing Gibbous
Jun 12
Full
Jun 19
Last Quarter
Jun 27
New
Jul 5
First Quarter

Hourly Weather History & Observations

Time (CDT) Temp. Heat Index Dew Point Humidity Pressure Visibility Wind Dir Wind Speed Gust Speed Precip Events Conditions
12:15 AM 78.8 °F - 69.8 °F 74% 29.92 in 10.0 mi Calm Calm - N/A   Mostly Cloudy
12:35 AM 78.8 °F - 71.6 °F 78% 29.92 in 10.0 mi Calm Calm - N/A   Mostly Cloudy
12:55 AM 77.0 °F - 71.6 °F 83% 29.92 in 10.0 mi Calm Calm - N/A   Scattered Clouds
1:15 AM 77.0 °F - 69.8 °F 78% 29.88 in 10.0 mi Calm Calm - N/A   Clear
1:35 AM 77.0 °F - 64.4 °F 65% 29.94 in 10.0 mi NNW 27.6 mph 35.7 mph N/A   Mostly Cloudy
1:55 AM 68.0 °F - 66.2 °F 94% 29.97 in 10.0 mi NNW 18.4 mph 34.5 mph 0.02 in Rain Light Rain
2:15 AM 66.2 °F - 66.2 °F 100% 29.94 in 7.0 mi NNE 9.2 mph 13.8 mph 0.35 in Rain Light Rain
2:35 AM 66.2 °F - 66.2 °F 100% 29.90 in 10.0 mi ENE 6.9 mph - 0.35 in   Clear
2:55 AM 66.2 °F - 66.2 °F 100% 29.88 in 10.0 mi Calm Calm - 0.35 in   Clear
3:15 AM 66.2 °F - 66.2 °F 100% 29.88 in 10.0 mi Calm Calm - N/A   Clear
3:35 AM 68.0 °F - 68.0 °F 100% 29.90 in 10.0 mi Calm Calm - N/A   Clear
3:55 AM 66.2 °F - 66.2 °F 100% 29.89 in 10.0 mi Calm Calm - N/A   Clear
4:15 AM 66.2 °F - 66.2 °F 100% 29.88 in 10.0 mi Calm Calm - N/A   Clear
4:35 AM 66.2 °F - 66.2 °F 100% 29.87 in 10.0 mi Calm Calm - N/A   Clear
4:55 AM 68.0 °F - 68.0 °F 100% 29.89 in 10.0 mi Calm Calm - N/A   Clear
5:15 AM 68.0 °F - 68.0 °F 100% 29.89 in 10.0 mi Calm Calm - N/A   Clear
5:35 AM 68.0 °F - 68.0 °F 100% 29.87 in 10.0 mi Calm Calm - N/A   Clear
5:55 AM 68.0 °F - 68.0 °F 100% 29.87 in 10.0 mi Calm Calm - N/A   Clear
6:15 AM 68.0 °F - 68.0 °F 100% 29.89 in 10.0 mi Calm Calm - N/A   Clear
6:55 AM 68.0 °F - 68.0 °F 100% 29.90 in 10.0 mi Calm Calm - N/A   Clear
7:15 AM 68.0 °F - 68.0 °F 100% 29.90 in 10.0 mi Calm Calm - N/A   Clear
7:35 AM 68.0 °F - 68.0 °F 100% 29.90 in 10.0 mi Calm Calm - N/A   Clear
7:55 AM 69.8 °F - 69.8 °F 100% 29.90 in 10.0 mi Calm Calm - N/A   Clear
8:35 AM 73.4 °F - 71.6 °F 94% 29.91 in 10.0 mi Calm Calm - N/A   Clear
8:55 AM 75.2 °F - 71.6 °F 89% 29.90 in 10.0 mi Calm Calm - N/A   Clear
9:15 AM 77.0 °F - 73.4 °F 89% 29.92 in 10.0 mi Calm Calm - N/A   Clear
9:35 AM 80.6 °F 85.4 °F 73.4 °F 79% 29.90 in 10.0 mi SSW 10.4 mph - N/A   Clear
9:55 AM 80.6 °F 84.6 °F 71.6 °F 74% 29.90 in 10.0 mi SSW 10.4 mph 17.3 mph N/A   Clear
10:15 AM 82.4 °F 87.2 °F 71.6 °F 70% 29.90 in 10.0 mi SSW 9.2 mph 16.1 mph N/A   Clear
10:35 AM 84.2 °F 88.4 °F 69.8 °F 62% 29.90 in 10.0 mi SSW 12.7 mph - N/A   Clear
10:55 AM 86.0 °F 90.4 °F 69.8 °F 58% 29.92 in 10.0 mi Calm Calm - N/A   Clear
11:15 AM 87.8 °F 92.6 °F 69.8 °F 55% 29.92 in 10.0 mi Calm Calm - N/A   Clear
11:35 AM 87.8 °F 92.6 °F 69.8 °F 55% 29.92 in 10.0 mi Calm Calm - N/A   Clear
12:15 PM 87.8 °F 92.6 °F 69.8 °F 55% 29.92 in 10.0 mi Calm Calm - N/A   Scattered Clouds
12:35 PM 89.6 °F 94.7 °F 69.8 °F 52% 29.92 in 10.0 mi Calm Calm - N/A   Scattered Clouds
12:55 PM 87.8 °F 93.8 °F 71.6 °F 58% 29.92 in 10.0 mi North 9.2 mph 16.1 mph N/A   Scattered Clouds
1:15 PM 84.2 °F 89.6 °F 71.6 °F 66% 29.94 in 10.0 mi North 12.7 mph 18.4 mph N/A   Scattered Clouds
1:35 PM 86.0 °F 91.8 °F 71.6 °F 62% 29.93 in 10.0 mi North 8.1 mph - N/A   Clear
1:55 PM 86.0 °F 91.8 °F 71.6 °F 62% 29.92 in 10.0 mi North 12.7 mph 17.3 mph N/A   Clear
2:15 PM 86.0 °F 91.8 °F 71.6 °F 62% 29.92 in 10.0 mi North 13.8 mph 17.3 mph N/A   Clear
2:35 PM 86.0 °F 90.4 °F 69.8 °F 58% 29.91 in 10.0 mi NNE 12.7 mph 17.3 mph N/A   Clear
2:55 PM 87.8 °F 93.8 °F 71.6 °F 58% 29.90 in 10.0 mi North 10.4 mph 20.7 mph N/A   Clear
3:15 PM 86.0 °F 90.4 °F 69.8 °F 58% 29.90 in 10.0 mi NNE 15.0 mph - N/A   Clear
3:35 PM 87.8 °F 92.6 °F 69.8 °F 55% 29.89 in 10.0 mi NE 12.7 mph - N/A   Clear
3:55 PM 87.8 °F 92.6 °F 69.8 °F 55% 29.89 in 10.0 mi ENE 6.9 mph - N/A   Clear
4:15 PM 87.8 °F 92.6 °F 69.8 °F 55% 29.88 in 10.0 mi Calm Calm - N/A   Clear
4:35 PM 89.6 °F 94.7 °F 69.8 °F 52% 29.87 in 10.0 mi Calm Calm - N/A   Clear
4:55 PM 89.6 °F 94.7 °F 69.8 °F 52% 29.87 in 10.0 mi Calm Calm - N/A   Clear
5:15 PM 87.8 °F 92.6 °F 69.8 °F 55% 29.87 in 10.0 mi Calm Calm - N/A   Clear
5:35 PM 87.8 °F 92.6 °F 69.8 °F 55% 29.87 in 10.0 mi NNE 12.7 mph 16.1 mph N/A   Clear
5:55 PM 86.0 °F 90.4 °F 69.8 °F 58% 29.88 in 10.0 mi NNE 13.8 mph - N/A   Scattered Clouds
6:15 PM 86.0 °F 90.4 °F 69.8 °F 58% 29.87 in 10.0 mi NNE 10.4 mph 17.3 mph N/A   Scattered Clouds
6:35 PM 82.4 °F 86.3 °F 69.8 °F 66% 29.87 in 10.0 mi NE 11.5 mph - N/A   Clear
6:55 PM 82.4 °F 86.3 °F 69.8 °F 66% 29.87 in 10.0 mi NNE 11.5 mph - N/A   Scattered Clouds
7:15 PM 80.6 °F 83.9 °F 69.8 °F 70% 29.85 in 10.0 mi North 11.5 mph 17.3 mph N/A   Clear
7:35 PM 82.4 °F 86.3 °F 69.8 °F 66% 29.87 in 10.0 mi NE 6.9 mph - N/A   Clear
7:55 PM 82.4 °F 86.3 °F 69.8 °F 66% 29.87 in 10.0 mi NE 5.8 mph - N/A   Clear
8:15 PM 80.6 °F 83.9 °F 69.8 °F 70% 29.88 in 10.0 mi Calm Calm - N/A   Scattered Clouds
8:35 PM 80.6 °F 83.9 °F 69.8 °F 70% 29.88 in 10.0 mi Calm Calm - N/A   Overcast
8:55 PM 80.6 °F 83.2 °F 68.0 °F 65% 29.89 in 10.0 mi NE 3.5 mph - N/A   Overcast
9:15 PM 80.6 °F 83.2 °F 68.0 °F 65% 29.89 in 10.0 mi Calm Calm - N/A   Overcast
9:35 PM 78.8 °F - 68.0 °F 69% 29.88 in 10.0 mi ENE 8.1 mph - N/A   Overcast
9:55 PM 78.8 °F - 68.0 °F 69% 29.89 in 10.0 mi Calm Calm - N/A   Mostly Cloudy
10:15 PM 77.0 °F - 69.8 °F 78% 29.90 in 10.0 mi East 16.1 mph 19.6 mph N/A   Mostly Cloudy
10:35 PM 73.4 °F - 68.0 °F 83% 29.90 in 10.0 mi East 3.5 mph 16.1 mph N/A   Mostly Cloudy
10:55 PM 71.6 °F - 69.8 °F 94% 29.91 in 10.0 mi East 9.2 mph - N/A   Overcast
11:15 PM 71.6 °F - 71.6 °F 100% 29.91 in 10.0 mi East 11.5 mph - N/A   Overcast
11:35 PM 71.6 °F - 69.8 °F 94% 29.89 in 10.0 mi East 12.7 mph 17.3 mph N/A   Mostly Cloudy
11:55 PM 73.4 °F - 69.8 °F 88% 29.88 in 10.0 mi ESE 13.8 mph 19.6 mph N/A   Mostly Cloudy